Flag for Portugal Weather past 2 weeks in Cascais, Portugal

Now
61 °F

Passing clouds.


Feels Like: 61 °F
Forecast: 55 / 65 °F
Wind: 10 mph from North

Location: Lisbon Portela Airport

Current Time: Mar 28, 2015 at 11:09:42 AM

Latest Report: Mar 28, 2015 at 10:30 AM


Visibility: N/A

Pressure: 30.45 "Hg

Humidity: 72%

Dew point: 52 °F

Location of CascaisLocation

Historic Weather in Cascais — Graph

°F

Cascais temperature yesterday

Maximum temperature yesterday: 64 °F (at 2:00 PM)
Minimum temperature yesterday: 54 °F (at 1:00 AM)
Average temperature yesterday: 57 °F

Past Weeks' High & Low Weather Summary

 TemperatureHumidityPressure
High68 °F (Mar 20, 2:00 PM)100% (Mar 17, 8:00 AM)30.45 "Hg (Mar 17, 8:00 AM)
Low46 °F (Mar 15, 11:30 PM)22% (Mar 14, 2:00 PM)29.65 "Hg (Mar 24, 4:30 AM)
Average54 °F73%29.97 "Hg
* Reported Midnight between Mar 13 and Mar 14 — Mar 28 10:00 AM, Cascais, Weather by CustomWeather, © 2015

Note: Actual official high and low records may vary slightly from our data, if they occured in-between our weather recording intervals... More about our weather records

Advertising

Cascais weather history for previous 24 hours

 ConditionsComfort  
Time TempWeatherWind HumidityBarometerVisibility
10:00 AM
Sat, Mar 28
59 °FPassing clouds.9 mph72%30.42 "HgN/A
9:30 AM57 °FPassing clouds.14 mph82%30.42 "HgN/A
9:00 AM55 °FPassing clouds.13 mph88%30.42 "HgN/A
8:30 AM55 °FPassing clouds.10 mph88%30.42 "HgN/A
8:00 AM54 °FPassing clouds.16 mph94%30.42 "HgN/A
7:30 AM52 °FPassing clouds.12 mph94%30.42 "HgN/A
7:00 AM52 °FPassing clouds.12 mph94%30.39 "HgN/A
6:30 AM52 °FPassing clouds.7 mph94%30.39 "HgN/A
6:00 AM52 °FPassing clouds.6 mph94%30.39 "HgN/A
5:30 AM52 °FClear.10 mph94%30.39 "Hg10 mi
5:00 AM52 °FPassing clouds.7 mph94%30.39 "HgN/A
4:30 AM52 °FPassing clouds.9 mph94%30.39 "HgN/A
4:00 AM52 °FPassing clouds.5 mph94%30.39 "HgN/A
3:30 AM52 °FPassing clouds.7 mph94%30.39 "HgN/A
3:00 AM52 °FPassing clouds.5 mph94%30.39 "HgN/A
2:30 AM52 °FClear.9 mph94%30.39 "Hg10 mi
2:00 AM52 °FPassing clouds.6 mph94%30.39 "HgN/A
1:30 AM54 °FPassing clouds.7 mph88%30.42 "HgN/A
1:00 AM54 °FClear.14 mph88%30.42 "Hg10 mi
12:30 AM54 °FPassing clouds.14 mph88%30.42 "HgN/A
12:00 AM54 °FPassing clouds.14 mph88%30.42 "HgN/A
11:30 PM
Fri, Mar 27
54 °FPassing clouds.14 mph88%30.42 "HgN/A
11:00 PM54 °FClear.17 mph82%30.42 "Hg10 mi
10:30 PM54 °FPassing clouds.8 mph82%30.42 "HgN/A
10:00 PM54 °FPassing clouds.13 mph82%30.42 "HgN/A
9:30 PM54 °FClear.10 mph82%30.42 "Hg10 mi
9:00 PM54 °FPassing clouds.10 mph82%30.42 "HgN/A
8:30 PM55 °FClear.16 mph72%30.42 "Hg10 mi
8:00 PM55 °FClear.15 mph72%30.42 "Hg10 mi
7:30 PM55 °FClear.18 mph77%30.39 "Hg10 mi
7:00 PM57 °FClear.21 mph72%30.39 "Hg10 mi
6:30 PM59 °FSunny.21 mph68%30.39 "Hg10 mi
6:00 PM61 °FPassing clouds.21 mph63%30.39 "HgN/A
5:30 PM61 °FPassing clouds.17 mph63%30.36 "HgN/A
5:00 PM63 °FPassing clouds.20 mph59%30.36 "HgN/A
4:30 PM64 °FPassing clouds.17 mph60%30.36 "HgN/A
4:01 PM64 °FPassing clouds.17 mph60%30.36 "HgN/A
3:30 PM64 °FPassing clouds.21 mph60%30.36 "HgN/A
3:00 PM64 °FPassing clouds.16 mph60%30.36 "HgN/A
2:30 PM64 °FPassing clouds.18 mph64%30.36 "HgN/A
2:00 PM64 °FPassing clouds.17 mph64%30.39 "HgN/A
1:30 PM63 °FPassing clouds.16 mph68%30.39 "HgN/A
1:00 PM61 °FPassing clouds.16 mph72%30.39 "HgN/A
12:30 PM61 °FPassing clouds.14 mph72%30.42 "HgN/A
12:00 PM61 °FScattered clouds.16 mph72%30.42 "HgN/A
11:30 AM61 °FPartly sunny.13 mph72%30.42 "HgN/A
11:00 AM61 °FPartly sunny.15 mph72%30.42 "HgN/A
Weather by CustomWeather, © 2015

See weather overviewHow to use our weather pages